Overview Statistics Trail Chart Weather Telemetry Raw packets
 

This is the latest recevied weather packets stored in our database for station/object K5IDL. If no packets are shown the sender has not sent any weather packets the latest 10 day(s).

<< 21 22 23 24 25 26 27 >>
Time Temp. Humidity Pressure Rain* Wind** Luminosity Snow
1788562186 35.56° C 47% 1012.5 hPa 0 mm - 25 W/m² -
1788561883 35.56° C 47% 1012.5 hPa 0 mm - 67 W/m² -
1788561582 36.11° C 46% 1012.3 hPa 0 mm - 118 W/m² -
1788561281 36.11° C 46% 1012.5 hPa 0 mm - 108 W/m² -
1788560977 36.11° C 46% 1012.6 hPa 0 mm - 28 W/m² -
1788560673 36.11° C 45% 1012.8 hPa 0 mm - 78 W/m² -
1788560373 36.67° C 44% 1012.6 hPa 0 mm - 86 W/m² -
1788560067 36.67° C 44% 1012.5 hPa 0 mm - 95 W/m² -
1788559763 36.11° C 45% 1012.5 hPa 0 mm - 109 W/m² -
1788559462 36.11° C 45% 1012.8 hPa 0 mm - 34 W/m² -
1788559157 36.11° C 45% 1012.8 hPa 0 mm - 38 W/m² -
1788558853 36.11° C 46% 1012.8 hPa 0 mm - 175 W/m² -
1788558549 36.67° C 45% 1012.9 hPa 0 mm - 35 W/m² -
1788558244 36.11° C 45% 1012.8 hPa 0 mm - 87 W/m² -
1788557943 36.67° C 45% 1012.8 hPa 0 mm - 45 W/m² -
1788557637 36.67° C 45% 1012.9 hPa 0 mm - 117 W/m² -
1788557333 36.11° C 47% 1013 hPa 0 mm - 46 W/m² -
1788557027 36.11° C 46% 1013.1 hPa 0 mm - 41 W/m² -
1788556723 36.67° C 45% 1013.1 hPa 0 mm - 55 W/m² -
1788556417 36.67° C 45% 1013.2 hPa 0 mm - 39 W/m² -
1788556112 36.67° C 45% 1013.2 hPa 0 mm - 47 W/m² -
1788555806 36.11° C 45% 1013.4 hPa 0 mm - 50 W/m² -
1788555503 36.67° C 46% 1013.4 hPa 0 mm - 42 W/m² -
1788555198 37.22° C 45% 1013.2 hPa 0 mm - 62 W/m² -
1788554895 37.22° C 45% 1013.3 hPa 0 mm - 95 W/m² -

* Rain latest hour (hover to see other rain measurements)
** Current wind speed in m/s (hover to see current wind gust speed)